Weather Roundup
Issued by NWS Chicago, IL

Home | Current Version | Previous Version | Text Only | Print | Product List | Glossary On
Versions: 1 2 3 4 5 6 7 8 9 10 11 12 13 14 15 16 17 18 19 20 21 22 23 24 25 26 27 28 29 30 31 32 33 34 35 36 37 38 39 40 41 42 43 44 45 46 47 48 49 50
000
NZUS59 KLOT 280108
HRRLOT

CHICAGO AREA WEATHER ROUNDUP
NATIONAL WEATHER SERVICE CHICAGO/ROMEOVILLE IL
700 PM CST SAT FEB 27 2021

NOTE: "FAIR" INDICATES FEW OR NO CLOUDS BELOW 12,000 FEET WITH NO
SIGNIFICANT WEATHER AND/OR OBSTRUCTIONS TO VISIBILITY.

* THESE STATIONS ARE NOT UNDER NWS QUALITY CONTROL. THEY ALSO MAY NOT
  REPORT WEATHER SUCH AS PRECIPITATION OR FOG.

ILZ005-006-012>014-019>023-280200-
NORTHEAST ILLINOIS

CITY           SKY/WX    TMP DP  RH WIND       PRES   REMARKS
OHARE          MOCLDY    44  37  76 SE5       30.05S
MIDWAY         MOCLDY    46  37  71 SE7       30.06F
AURORA         PTCLDY    40  35  83 SE8       30.04S
LANSING*       MOCLDY    42  38  84 SE6       30.08S
JOLIET*        MOCLDY    44  40  87 SE6       30.07R
WAUKEGAN       CLEAR     34  30  85 SE5       30.06R WCI  30
DUPAGE AIRPORT PTCLDY    41  36  82 SE7       30.04S
WHEELING       CLEAR     43  35  73 SE6       30.07R
KANKAKEE*      MOCLDY    39  37  92 SE7       30.08S
MORRIS*        MOCLDY    42  38  85 SE9       30.04S
LEWIS AIRPORT* PTCLDY    40  38  91 SE9       30.06R
NORTHERLY ISL*   N/A     38  34  85 S5          N/A
$$

WIZ051-052-058>065-066-070>072-280200-
SOUTHEAST WISCONSIN

CITY           SKY/WX    TMP DP  RH WIND       PRES   REMARKS
MILWAUKEE      MOCLDY    42  32  67 S6        30.06R
KENOSHA*       CLEAR     40  32  73 S5        30.06R
RACINE*        CLEAR     39  34  82 S8        30.08R
BURLINGTON       N/A     33  30  89 CALM      30.05S
WAUKESHA       CLEAR     36  27  69 SE3       30.05R
WEST BEND      CLEAR     39  28  65 S5        30.03S
$$

INZ001>003-010>013-019-020-280200-
NORTHWEST INDIANA

CITY           SKY/WX    TMP DP  RH WIND       PRES   REMARKS
GARY*          CLEAR     43  37  81 SE6       30.09S
MICHIGAN CITY* NOT AVBL
RENSSELAER*    NOT AVBL
VALPARAISO     MOCLDY    40  36  86 E7        30.10R
$$

LMZ740>746-280200-
SOUTHERN LAKE MICHIGAN

STATION/POSITION TIME  SKY/WX   TEMP WIND        PRES    VSBY
                                AIR  DIR/SP/G
                 (UTC)          (F)  (DEG/KT/KT) (MB)    (MI)
HARRISON CRIB    0040            40  150/ 13/ 13   N/A
NORTHERLY ISL    0045            38  160/  4/  7   N/A
CALUMET HARBOR   0030                120/  5/  7 1017.6F
BURNS HARBOR     0040            45  140/  6/  9 1019.3S
MICHIGAN CITY    0040            43  130/  8/ 10   N/A
$$

ABBREVIATIONS USED IN REMARKS
   TC - TEMPERATURE IN CELSIUS
  WCI - WIND CHILL INDEX
   HX - HEAT INDEX
  VSB - VISIBILITY
$$




USA.gov is the U.S. government's official web portal to all federal, state and local government web resources and services.